カタログに戻る

KUIPER-00436

運用中通信LEO
NORAD 68939·PAYLOAD·🇺🇸 United States

打ち上げ Apr 30, 2026 から Guiana Space Centre

Loading…

次のパス (今後24時間)

TLE

最新Source: CelesTrak SupGP

元期: Sep 14, 2026, 19:59 UTC

1 68939C 26098W   26257.83325232  .00008264  00000+0  10819-2 0  2577
2 68939  51.9002  21.7459 0000591 105.9437  74.6039 14.79919244    16

AllMySatでKUIPER-00436をリアルタイム追跡

Download on the App Store